Flag for United Arab Emirates Weather past 2 weeks in Dubai, Dubai, United Arab Emirates

Now
93 °F

Clear.


Feels Like: 107 °F
Forecast: 90 / 101 °F
Wind: 7 mph from Northwest

Location: Dubai International Airport

Current Time: Jul 1, 2015 at 8:22:23 PM

Latest Report: Jul 1, 2015 at 8:00 PM


Visibility: 10 mi

Pressure: 29.53 "Hg

Humidity: 59%

Dew point: 77 °F

Location of DubaiLocation

Historic Weather in Dubai — Graph

°F

Dubai temperature yesterday

Maximum temperature yesterday: 99 °F (at 11:00 AM)
Minimum temperature yesterday: 86 °F (at 5:00 AM)
Average temperature yesterday: 92 °F

Past Weeks' High & Low Weather Summary

 TemperatureHumidityPressure
High104 °F (Jun 17, 1:00 PM)84% (Jun 18, 11:00 PM)29.65 "Hg (Jun 18, 11:00 PM)
Low84 °F (Jun 25, 6:00 AM)17% (Jun 27, 3:00 PM)29.36 "Hg (Jun 20, 3:00 PM)
Average94 °F50%29.48 "Hg
* Reported Jun 16 7:00 PM — Jul 1 7:00 PM, Dubai, Weather by CustomWeather, © 2015

Note: Actual official high and low records may vary slightly from our data, if they occured in-between our weather recording intervals... More about our weather records

Advertising

Dubai weather history for previous 24 hours

 ConditionsComfort  
Time TempWeatherWind HumidityBarometerVisibility
7:00 PM
Wed, Jul 1
91 °FClear.8 mph71%29.53 "Hg5 mi
6:00 PM93 °FClear.12 mph71%29.53 "Hg5 mi
5:00 PM95 °FClear.13 mph63%29.53 "Hg5 mi
4:00 PM95 °FClear.15 mph63%29.53 "Hg5 mi
3:00 PM93 °FClear.15 mph71%29.56 "Hg4 mi
2:00 PM95 °FClear.18 mph67%29.56 "Hg4 mi
1:00 PM97 °FClear.14 mph56%29.56 "Hg5 mi
12:00 PM102 °FClear.12 mph40%29.56 "Hg6 mi
11:00 AM102 °FSunny.3 mph35%29.59 "Hg10 mi
10:00 AM104 °FPassing clouds.7 mph19%29.59 "HgN/A
9:00 AM99 °FPassing clouds.7 mph27%29.59 "HgN/A
8:00 AM95 °FPassing clouds.8 mph32%29.59 "HgN/A
7:00 AM91 °FSunny.6 mph44%29.59 "Hg10 mi
6:00 AM90 °FClear.7 mph49%29.56 "Hg5 mi
5:00 AM90 °FClear.7 mph52%29.56 "Hg10 mi
4:00 AM91 °FPassing clouds.5 mph52%29.56 "HgN/A
3:00 AM91 °FClear.5 mph52%29.56 "Hg10 mi
2:00 AM90 °FClear.5 mph59%29.56 "Hg10 mi
1:00 AM90 °FClear.6 mph63%29.56 "Hg10 mi
12:00 AM90 °FPassing clouds.6 mph71%29.56 "HgN/A
11:00 PM
Tue, Jun 30
90 °FPassing clouds.9 mph79%29.59 "Hg6 mi
10:00 PM90 °FPassing clouds.7 mph75%29.56 "HgN/A
9:00 PM91 °FPassing clouds.6 mph71%29.56 "HgN/A
8:00 PM91 °FPassing clouds.8 mph59%29.56 "HgN/A
Weather by CustomWeather, © 2015

See weather overviewHow to use our weather pages